Regional Weather Roundup
Issued by NWS

Home | Current Version | Previous Version | Graphics & Text | Print | Product List | Glossary On
Versions: 1 2 3 4 5 6 7 8 9 10 11 12 13 14 15 16 17 18 19 20 21 22 23 24 25 26 27 28 29 30 31 32 33 34 35 36 37 38 39 40 41 42 43 44 45 46 47 48 49 50
000
ASUS43 KLSX 282307
RWRMO

WEATHER SUMMARY FOR MISSOURI
NATIONAL WEATHER SERVICE SPRINGFIELD MO
600 PM CDT TUE JUL 28 2015

NOTE: "FAIR" INDICATES FEW OR NO CLOUDS BELOW 12,000 FEET WITH NO
       SIGNIFICANT WEATHER AND/OR OBSTRUCTIONS TO VISIBILITY.
       CURRENT SKY AND/OR WEATHER CONDITIONS ARE NOT AVAILABLE FOR
       CHILLICOTHE AND FARMINGTON.

MOZ001>031-035>038-043-044-053-054-290000-
...NORTHERN AND WESTERN MISSOURI...

CITY           SKY/WX    TMP DP  RH WIND       PRES   REMARKS
KANSAS CTY INT MOSUNNY   92  74  55 S15       29.87S HX 101
KANSAS C DTWN  SUNNY     95  72  47 S12       29.85S HX 103
LEE`S SUMMIT   SUNNY     93  71  48 S14G21    29.89S HX 100
ST JOSEPH      SUNNY     93  77  59 S10       29.84S HX 107
CHILLICOTHE      N/A     93  77  59 S8        29.86F HX 107
KIRKSVILLE     MOSUNNY   91  75  59 S10       29.89F HX 101

$$
MOZ066>068-077>081-088>096-101>105-290000-
...SOUTHWEST MISSOURI...

CITY           SKY/WX    TMP DP  RH WIND       PRES   REMARKS
SPRINGFIELD    SUNNY     91  72  53 S14       29.95F HX  98
JOPLIN         SUNNY     93  73  52 S20G29    29.92F HX 102

$$
MOZ032>034-039>042-045>050-055>058-069>072-290000-
...CENTRAL MISSOURI...

CITY           SKY/WX    TMP DP  RH WIND       PRES   REMARKS
COLUMBIA       SUNNY     91  77  63 S8        29.92S HX 104
JEFFERSON CITY SUNNY     93  74  53 S10       29.89S HX 103
ROLLA          MOSUNNY   91  76  61 SW7       29.94S HX 103
SEDALIA        SUNNY     94  72  48 SW10      29.92S HX 102
WHITEMAN AFB   SUNNY     94  72  47 S20G25    29.88F HX 102
WARRENSBURG    SUNNY     91  70  49 S13       29.88S HX  97
OSAGE BEACH    MOSUNNY   93  73  52 S9        29.92S HX 102

$$
MOZ051-052-059>065-290000-
...EAST CENTRAL MISSOURI...

CITY           SKY/WX    TMP DP  RH WIND       PRES   REMARKS
ST LOUIS INTL  PTSUNNY   93  75  55 SE9       29.91F HX 104
SPIRIT OF STL  MOSUNNY   95  79  59 SW5       29.89F HX 112
ST CHARLES     MOSUNNY   96  78  56 VRB6      29.88F HX 112

$$
MOZ072>076-082>087-097>100-106>115-290000-
...SOUTH CENTRAL AND SOUTHEAST MISSOURI...

CITY           SKY/WX    TMP DP  RH WIND       PRES   REMARKS
CAPE GIRARDEAU SUNNY     91  79  67 SW8       29.90F HX 107
FARMINGTON     MOSUNNY   82  75  78 CALM      29.98F
POPLAR BLUFF   SUNNY     92  78  63 SW7       29.91F HX 107
WEST PLAINS    SUNNY     91  73  55 SW7       29.99F HX  99

$$


USA.gov is the U.S. government's official web portal to all federal, state and local government web resources and services.